QPF
0.00 0.00 0.00 0.00 0.00 0.00 0.00 0.00 0.00 0.00 0.00 0.00 0.00 0.00 0.00 0.00 0.00 0.00 0.00 0.00 0.00 0.00 0.00 0.00 0.00 0.00 0.00 0.00 0.00 0.00 0.00 0.00 0.00 0.00 0.00 0.00 0.00 0.00 0.00 0.00 0.00 0.00
0.00 0.00 0.00 0.00 0.00 0.00 0.00 0.00 0.00 0.00 0.00 0.00 0.00 0.00 0.00 0.00 0.00 0.00 0.00 0.00 0.00 0.00 0.00 0.00 0.00 0.00 0.00 0.00 0.00 0.00 0.00 0.00 0.00 0.00 0.00 0.00 0.00 0.00 0.00 0.00 0.00 0.00
0.00 0.00 0.00 0.00 0.00 0.00 0.00 0.00 0.00 0.00 0.00 0.00 0.00 0.00 0.00 0.00 0.00 0.00 0.00 0.00 0.00 0.00 0.00 0.00 0.00 0.00 0.00 0.00 0.00 0.00 0.00 0.00 0.00 0.00 0.00 0.00 0.00 0.00 0.00 0.00 0.00 0.00
0.00 0.00 0.00 0.00 0.00 0.00 0.00 0.00 0.00 0.00 0.00 0.00 0.00 0.00 0.00 0.00 0.00 0.00 0.00 0.00 0.00 0.00 0.00 0.00 0.00 0.00 0.00 0.00 0.00 0.00 0.00 0.00 0.00 0.00 0.00 0.00 0.00 0.00 0.00 0.00 0.00 0.00
0.00 0.00 0.00 0.00 0.00 0.00 0.00 0.00 0.00 0.00 0.00 0.00 0.00 0.00 0.00 0.00 0.00 0.00 0.00 0.00 0.00 0.00 0.00 0.00 0.00 0.00 0.00 0.00 0.00 0.00 0.00 0.00 0.00 0.00 0.00 0.00 0.00 0.00 0.00 0.00 0.00 0.00
0.00 0.00 0.00 0.00 0.00 0.00 0.00 0.00 0.00 0.00 0.00 0.00 0.00 0.00 0.00 0.00 0.00 0.00 0.00 0.00 0.00 0.00 0.00 0.00 0.00 0.00 0.00 0.00 0.00 0.00 0.00 0.00 0.00 0.00 0.00 0.00 0.00 0.00 0.00 0.00 0.00 0.00
0.00 0.00 0.00 0.00 0.00 0.00 0.00 0.00 0.00 0.00 0.00 0.00 0.00 0.00 0.00 0.00 0.00 0.00 0.00 0.00 0.00 0.00 0.00 0.00 0.00 0.00 0.00 0.00 0.00 0.00 0.00 0.00 0.00 0.00 0.00 0.00 0.00 0.00 0.00 0.00 0.00 0.00
0.00 0.00 0.00 0.00 0.00 0.00 0.00 0.00 0.00 0.00 0.00 0.00 0.00 0.00 0.00 0.00 0.00 0.00 0.00 0.00 0.00 0.00 0.00 0.00 0.00 0.00 0.00 0.00 0.00 0.00 0.00 0.00 0.00 0.00 0.00 0.00 0.00 0.00 0.00 0.00 0.00 0.00
0.00 0.00 0.00 0.00 0.00 0.00 0.00 0.00 0.00 0.00 0.00 0.00 0.00 0.00 0.00 0.00 0.00 0.00 0.00 0.00 0.00 0.00 0.00 0.00 0.00 0.00 0.00 0.00 0.00 0.00 0.00 0.00 0.00 0.00 0.00 0.00 0.00 0.00 0.00 0.00 0.00 0.00
0.00 0.00 0.00 0.00 0.00 0.00 0.00 0.00 0.00 0.00 0.00 0.00 0.00 0.00 0.00 0.00 0.00 0.00 0.00 0.00 0.00 0.00 0.00 0.00 0.00 0.00 0.00 0.00 0.00 0.00 0.00 0.00 0.00 0.00 0.00 0.00 0.00 0.00 0.00 0.00 0.00 0.00
0.00 0.00 0.00 0.00 0.00 0.00 0.00 0.00 0.00 0.00 0.00 0.00 0.00 0.00 0.00 0.00 0.00 0.00 0.00 0.00 0.00 0.00 0.00 0.00 0.00 0.00 0.00 0.00 0.00 0.00 0.00 0.00 0.00 0.00 0.00 0.00 0.00 0.00 0.00 0.00 0.00 0.00
0.00 0.00 0.00 0.00 0.00 0.00 0.00 0.00 0.00 0.00 0.00 0.00 0.00 0.00 0.00 0.00 0.00 0.00 0.00 0.00 0.00 0.00 0.00 0.00 0.00 0.00 0.00 0.00 0.00 0.00 0.00 0.00 0.00 0.00 0.00 0.00 0.00 0.00 0.00 0.00 0.00 0.00
0.00 0.00 0.00 0.00 0.00 0.00 0.00 0.00 0.00 0.00 0.00 0.00 0.00 0.00 0.00 0.00 0.00 0.00 0.00 0.00 0.00 0.00 0.00 0.00 0.00 0.00 0.00 0.00 0.00 0.00 0.00 0.00 0.00 0.00 0.00 0.00 0.00 0.00 0.00 0.00 0.00 0.00
0.00 0.00 0.00 0.00 0.00 0.00 0.00 0.00 0.00 0.00 0.00 0.00 0.00 0.00 0.00 0.00 0.00 0.00 0.00 0.00 0.00 0.00 0.00 0.00 0.00 0.00 0.00 0.00 0.00 0.00 0.00 0.00 0.00 0.00 0.00 0.00 0.00 0.00 0.00 0.00 0.00 0.00
0.00 0.00 0.00 0.00 0.00 0.00 0.00 0.00 0.00 0.00 0.00 0.00 0.00 0.00 0.00 0.00 0.00 0.00 0.00 0.00 0.00 0.00 0.00 0.00 0.00 0.00 0.00 0.00 0.00 0.00 0.00 0.00 0.00 0.00 0.00 0.00 0.00 0.00 0.00 0.00 0.00 0.00
0.00 0.00 0.00 0.00 0.00 0.00 0.00 0.00 0.00 0.00 0.00 0.00 0.00 0.00 0.00 0.00 0.00 0.00 0.00 0.00 0.00 0.00 0.00 0.00 0.00 0.00 0.00 0.00 0.00 0.00 0.00 0.00 0.00 0.00 0.00 0.00 0.00 0.00 0.00 0.00 0.00 0.00
0.00 0.00 0.00 0.00 0.00 0.00 0.00 0.00 0.00 0.00 0.00 0.00 0.00 0.00 0.00 0.00 0.00 0.00 0.00 0.00 0.00 0.00 0.00 0.00 0.00 0.00 0.00 0.00 0.00 0.00 0.00 0.02 0.01 0.00 0.00 0.00 0.00 0.00 0.00 0.00 0.00 0.00
0.00 0.00 0.00 0.00 0.00 0.00 0.00 0.00 0.00 0.00 0.00 0.00 0.00 0.00 0.00 0.00 0.00 0.00 0.00 0.00 0.00 0.00 0.00 0.00 0.00 0.00 0.00 0.00 0.00 0.00 0.00 0.00 0.00 0.00 0.00 0.00 0.00 0.00 0.00 0.00 0.00 0.00
0.00 0.00 0.00 0.00 0.00 0.00 0.00 0.00 0.00 0.00 0.00 0.00 0.00 0.00 0.00 0.00 0.00 0.00 0.01 0.00 0.00 0.00 0.00 0.00 0.00 0.00 0.00 0.00 0.00 0.00 0.00 0.00 0.00 0.00 0.00 0.00 0.00 0.00 0.00 0.00 0.00 0.00
0.00 0.00 0.00 0.00 0.00 0.00 0.00 0.00 0.00 0.00 0.00 0.00 0.00 0.00 0.00 0.00 0.00 0.00 0.00 0.00 0.00 0.00 0.00 0.00 0.01 0.00 0.00 0.00 0.00 0.00 0.00 0.00 0.01 0.01 0.00 0.00 0.00 0.00 0.00 0.00 0.00 0.00
0.00 0.00 0.00 0.00 0.00 0.00 0.00 0.00 0.00 0.00 0.00 0.00 0.00 0.00 0.00 0.01 0.00 0.00 0.00 0.00 0.00 0.00 0.00 0.00 0.01 0.00 0.00 0.00 0.00 0.00 0.00 0.00 0.01 0.01 0.00 0.00 0.00 0.00 0.00 0.00 0.00 0.00
0.00 0.00 0.00 0.00 0.00 0.00 0.00 0.00 0.00 0.00 0.00 0.00 0.00 0.00 0.00 0.00 0.00 0.00 0.00 0.00 0.00 0.00 0.00 0.00 0.01 0.00 0.00 0.00 0.00 0.00 0.00 0.01 0.02 0.01 0.00 0.00 0.00 0.00 0.00 0.00 0.00 0.00
0.00 0.00 0.00 0.00 0.00 0.00 0.00 0.00 0.00 0.00 0.00 0.00 0.00 0.00 0.00 0.00 0.00 0.00 0.00 0.00 0.00 0.00 0.00 0.00 0.01 0.00 0.00 0.00 0.00 0.00 0.00 0.03 0.01 0.01 0.00 0.00 0.00 0.00 0.00 0.00 0.00 0.00
0.00 0.00 0.00 0.00 0.00 0.00 0.00 0.00 0.00 0.00 0.00 0.00 0.00 0.00 0.00 0.00 0.00 0.00 0.00 0.00 0.00 0.00 0.00 0.00 0.01 0.00 0.00 0.00 0.00 0.00 0.00 0.01 0.01 0.01 0.00 0.00 0.00 0.00 0.00 0.00 0.00 0.00
0.00 0.00 0.00 0.00 0.00 0.00 0.00 0.00 0.00 0.00 0.00 0.00 0.00 0.00 0.00 0.00 0.00 0.00 0.00 0.00 0.00 0.00 0.00 0.00 0.00 0.00 0.00 0.00 0.00 0.00 0.00 0.01 0.01 0.00 0.00 0.00 0.00 0.00 0.00 0.00 0.00 0.00
0.00 0.00 0.00 0.00 0.00 0.00 0.00 0.00 0.00 0.00 0.00 0.00 0.00 0.00 0.00 0.00 0.00 0.00 0.00 0.00 0.00 0.00 0.00 0.00 0.00 0.00 0.00 0.00 0.00 0.00 0.00 0.00 0.00 0.00 0.00 0.00 0.00 0.00 0.00 0.00 0.00 0.00
MSLP
1020.84 1020.92 1021.16 1021.20 1021.32 1021.44 1021.72 1021.92 1022.00 1022.16 1022.44 1022.40 1022.44 1022.68 1022.76 1022.72 1022.60 1022.52 1022.48 1022.52 1022.48 1022.40 1022.36 1022.32 1022.16 1022.04 1021.92 1022.04 1022.00 1021.92 1021.96 1021.96 1021.72 1021.64 1021.72 1021.52 1021.36 1021.28 1021.28 1021.20 1021.04 1021.00
1020.92 1020.80 1020.92 1021.04 1021.52 1021.64 1021.72 1021.80 1022.04 1022.16 1022.48 1022.44 1022.48 1022.68 1022.76 1022.76 1022.64 1022.48 1022.56 1022.56 1022.44 1022.52 1022.44 1022.36 1022.28 1022.20 1022.12 1022.12 1022.12 1022.20 1022.20 1022.04 1022.00 1021.80 1021.84 1021.76 1021.48 1021.36 1021.28 1021.16 1021.04 1020.92
1020.84 1020.96 1021.00 1021.20 1021.36 1021.60 1021.60 1021.80 1022.08 1022.20 1022.32 1022.24 1022.40 1022.44 1022.60 1022.52 1022.72 1022.68 1022.60 1022.48 1022.44 1022.44 1022.52 1022.44 1022.44 1022.32 1022.16 1022.24 1022.20 1022.28 1022.40 1022.40 1022.24 1022.08 1022.04 1021.96 1021.64 1021.48 1021.40 1021.20 1021.12 1020.96
1020.72 1020.68 1020.68 1020.80 1021.08 1021.36 1021.60 1021.92 1022.12 1022.20 1022.44 1022.60 1022.44 1022.40 1022.44 1022.48 1022.64 1022.76 1022.88 1022.72 1022.64 1022.68 1022.60 1022.60 1022.52 1022.36 1022.32 1022.28 1022.24 1022.28 1022.36 1022.36 1022.40 1022.32 1022.24 1021.96 1021.88 1021.60 1021.56 1021.44 1021.36 1021.12
1020.52 1020.64 1020.68 1020.92 1021.16 1021.36 1021.60 1021.92 1022.04 1022.32 1022.40 1022.52 1022.60 1022.64 1022.68 1022.72 1022.64 1022.72 1022.72 1022.84 1022.72 1022.60 1022.64 1022.60 1022.52 1022.48 1022.44 1022.40 1022.28 1022.24 1022.20 1022.24 1022.44 1022.36 1022.36 1022.16 1021.84 1021.76 1021.64 1021.72 1021.64 1021.44
1020.52 1020.72 1020.92 1021.16 1021.28 1021.40 1021.64 1021.88 1022.00 1022.36 1022.56 1022.52 1022.44 1022.44 1022.60 1022.64 1022.56 1022.60 1022.64 1022.52 1022.40 1022.40 1022.40 1022.36 1022.40 1022.48 1022.52 1022.64 1022.56 1022.52 1022.36 1022.36 1022.52 1022.48 1022.40 1022.40 1022.20 1021.96 1021.84 1021.84 1021.88 1021.68
1020.84 1021.04 1021.28 1021.32 1021.32 1021.32 1021.52 1021.72 1022.08 1022.32 1022.28 1022.20 1022.48 1022.60 1022.64 1022.72 1022.92 1022.96 1022.84 1022.64 1022.60 1022.60 1022.64 1022.80 1022.80 1022.68 1022.60 1022.68 1022.76 1022.84 1022.72 1022.68 1022.68 1022.68 1022.60 1022.44 1022.40 1022.24 1022.12 1021.96 1022.04 1021.88
1020.96 1021.16 1021.36 1021.36 1021.40 1021.52 1021.56 1021.84 1022.04 1022.20 1022.28 1022.40 1022.52 1022.76 1022.68 1022.76 1022.88 1022.80 1022.76 1022.68 1022.64 1022.68 1022.72 1022.80 1022.92 1022.80 1022.52 1022.52 1022.68 1022.68 1022.40 1022.16 1022.48 1022.60 1022.56 1022.52 1022.48 1022.40 1022.28 1022.16 1022.08 1021.96
1021.08 1021.32 1021.36 1021.44 1021.60 1021.72 1021.80 1021.84 1022.08 1022.28 1022.24 1022.24 1022.48 1022.60 1022.60 1022.60 1022.76 1022.76 1022.96 1022.80 1022.88 1022.92 1022.88 1022.88 1022.88 1022.92 1022.84 1022.88 1022.92 1022.88 1022.76 1022.56 1022.48 1022.48 1022.52 1022.40 1022.36 1022.32 1022.28 1022.24 1022.20 1022.12
1021.12 1021.32 1021.40 1021.48 1021.76 1021.84 1022.00 1021.96 1022.12 1022.28 1022.28 1022.48 1022.52 1022.44 1022.64 1022.76 1022.88 1023.12 1023.12 1023.08 1023.00 1022.96 1022.92 1023.00 1023.00 1022.92 1022.84 1022.80 1022.84 1022.80 1022.72 1022.64 1022.60 1022.52 1022.44 1022.36 1022.32 1022.36 1022.28 1022.32 1022.32 1022.24
1021.00 1021.24 1021.48 1021.64 1021.84 1021.96 1022.08 1022.16 1022.28 1022.24 1022.32 1022.44 1022.56 1022.68 1022.76 1022.96 1023.12 1023.12 1023.12 1022.92 1022.72 1022.72 1022.88 1022.96 1022.96 1022.92 1022.92 1022.80 1022.68 1022.64 1022.80 1022.64 1022.60 1022.40 1022.28 1022.16 1022.20 1022.20 1022.24 1022.20 1022.16 1022.16
1021.08 1021.32 1021.56 1021.76 1021.84 1022.04 1022.20 1022.28 1022.28 1022.32 1022.32 1022.36 1022.52 1022.84 1022.88 1022.88 1023.04 1022.88 1022.80 1022.68 1022.72 1022.72 1022.68 1022.84 1022.92 1022.84 1023.00 1022.96 1022.72 1022.64 1022.60 1022.44 1022.36 1022.24 1022.08 1021.72 1021.88 1022.08 1022.04 1022.08 1022.04 1022.00
1021.08 1021.32 1021.52 1021.68 1021.76 1021.92 1022.12 1022.28 1022.28 1022.28 1022.32 1022.52 1022.60 1022.80 1022.88 1022.64 1022.76 1022.88 1022.52 1022.52 1022.72 1022.48 1022.60 1022.76 1022.80 1022.88 1022.96 1022.76 1022.68 1022.56 1022.52 1022.40 1022.36 1022.16 1022.04 1021.80 1021.44 1021.84 1021.96 1022.00 1022.04 1021.92
1020.92 1021.08 1021.36 1021.60 1021.64 1021.92 1022.16 1022.20 1022.20 1022.32 1022.40 1022.52 1022.72 1022.84 1022.76 1022.60 1022.64 1022.68 1022.60 1022.64 1022.68 1022.64 1022.76 1022.76 1022.88 1022.76 1022.64 1022.60 1022.56 1022.64 1022.32 1022.36 1022.52 1022.28 1022.16 1022.00 1021.92 1021.56 1021.88 1022.04 1022.16 1021.92
1020.84 1021.04 1021.28 1021.60 1021.80 1022.08 1022.28 1022.32 1022.36 1022.48 1022.60 1022.64 1022.80 1022.80 1022.72 1022.64 1022.64 1022.32 1022.48 1022.48 1022.64 1022.68 1022.72 1022.68 1022.64 1022.28 1022.48 1022.64 1022.60 1022.52 1022.52 1022.72 1022.48 1022.20 1022.16 1022.24 1022.12 1021.80 1021.84 1022.16 1022.12 1021.84
1020.88 1021.00 1021.36 1021.60 1021.96 1022.24 1022.40 1022.44 1022.48 1022.56 1022.64 1022.76 1022.88 1022.88 1022.84 1022.84 1022.92 1022.84 1022.64 1022.64 1022.60 1022.52 1022.40 1022.08 1022.04 1021.84 1022.68 1022.96 1023.00 1022.84 1022.72 1022.60 1022.48 1022.32 1022.28 1022.36 1022.20 1022.08 1021.92 1021.88 1022.00 1021.96
1021.00 1021.20 1021.44 1021.80 1022.04 1022.20 1022.40 1022.48 1022.60 1022.64 1022.76 1022.88 1022.88 1022.88 1022.92 1022.96 1022.88 1022.80 1022.60 1022.28 1022.44 1022.28 1022.16 1021.88 1021.76 1022.04 1022.76 1022.92 1022.96 1022.92 1022.72 1022.64 1022.48 1022.12 1021.96 1022.08 1021.88 1022.00 1022.00 1021.96 1021.92 1022.04
1020.92 1021.24 1021.60 1021.92 1022.12 1022.32 1022.40 1022.52 1022.60 1022.76 1022.88 1022.92 1022.92 1022.96 1022.96 1022.80 1022.96 1023.00 1022.96 1022.76 1022.60 1022.52 1022.36 1022.00 1021.96 1022.32 1022.68 1022.84 1022.88 1022.84 1022.76 1022.56 1022.36 1022.12 1021.88 1021.72 1021.80 1021.88 1021.80 1021.80 1022.00 1021.96
1020.96 1021.36 1021.72 1021.96 1022.20 1022.28 1022.40 1022.52 1022.68 1022.84 1022.92 1022.96 1023.00 1022.80 1022.80 1023.00 1023.00 1022.96 1023.00 1022.84 1022.80 1022.76 1022.64 1022.24 1021.92 1022.36 1022.64 1022.80 1022.84 1022.84 1022.76 1022.60 1022.24 1022.04 1022.12 1021.88 1021.96 1021.92 1021.88 1022.08 1022.12 1022.04
1021.12 1021.44 1021.76 1022.00 1022.16 1022.20 1022.40 1022.52 1022.68 1022.84 1022.72 1022.68 1022.76 1022.76 1022.96 1022.96 1022.80 1022.84 1022.84 1022.88 1022.72 1022.60 1022.56 1022.32 1022.04 1022.44 1022.64 1022.76 1022.76 1022.76 1022.68 1022.60 1022.24 1022.12 1021.92 1021.72 1021.96 1021.96 1021.96 1021.96 1022.16 1022.20
1021.24 1021.48 1021.80 1022.00 1022.16 1022.28 1022.48 1022.52 1022.64 1022.64 1022.64 1022.60 1022.56 1022.68 1022.84 1022.92 1022.84 1022.80 1022.72 1022.64 1022.52 1022.40 1022.28 1022.16 1021.96 1022.40 1022.56 1022.64 1022.64 1022.64 1022.64 1022.52 1022.08 1021.92 1021.72 1021.56 1021.60 1021.68 1021.96 1022.00 1022.04 1021.92
1021.20 1021.52 1021.64 1021.88 1022.12 1022.32 1022.48 1022.64 1022.60 1022.72 1022.76 1022.68 1022.64 1022.36 1022.12 1022.40 1022.68 1022.60 1022.56 1022.52 1022.40 1022.32 1022.32 1022.24 1022.00 1022.24 1022.40 1022.44 1022.48 1022.48 1022.48 1022.12 1021.92 1021.88 1021.88 1021.68 1021.60 1021.64 1021.76 1021.84 1021.84 1021.84
1021.12 1021.36 1021.60 1021.80 1022.04 1022.36 1022.48 1022.56 1022.72 1022.80 1022.68 1022.56 1022.72 1022.52 1022.36 1022.44 1022.48 1022.44 1022.32 1022.28 1022.28 1022.16 1022.20 1022.20 1021.96 1022.04 1022.20 1022.28 1022.32 1022.32 1022.20 1021.88 1021.80 1021.76 1021.60 1021.52 1021.44 1021.48 1021.64 1021.68 1021.64 1021.68
1021.12 1021.32 1021.60 1021.76 1022.04 1022.32 1022.48 1022.52 1022.56 1022.56 1022.60 1022.52 1022.64 1022.52 1022.44 1022.16 1022.12 1022.24 1022.16 1022.00 1022.04 1022.08 1022.04 1022.12 1021.96 1021.84 1021.96 1022.08 1022.16 1022.20 1022.12 1021.88 1021.80 1021.76 1021.48 1021.36 1021.40 1021.32 1021.36 1021.40 1021.44 1021.64
1021.12 1021.36 1021.52 1021.68 1021.92 1022.16 1022.24 1022.36 1022.48 1022.48 1022.28 1022.24 1022.44 1022.36 1022.32 1022.32 1022.12 1021.96 1021.96 1021.92 1021.96 1022.00 1021.96 1022.04 1021.84 1021.68 1021.72 1021.84 1021.96 1022.08 1022.00 1021.68 1021.68 1021.52 1021.32 1021.28 1021.20 1021.24 1021.16 1021.16 1021.16 1021.32
1021.00 1021.32 1021.48 1021.64 1021.80 1021.96 1022.00 1022.08 1022.24 1022.28 1022.28 1022.36 1022.36 1022.16 1022.00 1021.84 1022.00 1021.84 1022.08 1021.96 1021.80 1021.84 1021.80 1021.68 1021.68 1021.56 1021.48 1021.64 1021.76 1021.88 1022.00 1021.76 1021.44 1021.44 1021.36 1021.32 1021.24 1021.16 1021.16 1021.04 1020.92 1020.88
Thickness
5709 5706 5702 5700 5697 5695 5693 5689 5687 5685 5682 5681 5680 5679 5678 5677 5677 5677 5675 5674 5674 5672 5672 5671 5671 5670 5669 5668 5667 5667 5665 5664 5664 5663 5663 5662 5662 5662 5660 5660 5659 5658
5707 5705 5703 5700 5696 5693 5691 5688 5686 5683 5681 5680 5679 5677 5675 5674 5674 5674 5673 5672 5672 5670 5669 5668 5668 5668 5667 5666 5665 5664 5662 5661 5661 5660 5659 5659 5659 5659 5657 5657 5657 5656
5706 5705 5703 5700 5696 5692 5690 5688 5684 5682 5680 5679 5677 5676 5675 5673 5672 5671 5670 5670 5670 5668 5667 5666 5665 5665 5664 5664 5662 5661 5659 5658 5658 5657 5655 5655 5655 5655 5654 5654 5654 5653
5705 5704 5703 5700 5696 5692 5689 5685 5682 5681 5679 5676 5675 5674 5673 5672 5670 5668 5667 5666 5666 5665 5665 5663 5662 5663 5661 5661 5660 5658 5657 5655 5653 5653 5652 5652 5652 5651 5650 5649 5649 5649
5704 5702 5701 5697 5694 5691 5687 5683 5681 5679 5676 5674 5673 5672 5670 5669 5668 5668 5666 5665 5664 5664 5663 5662 5660 5660 5658 5658 5658 5657 5655 5653 5651 5649 5648 5647 5648 5648 5647 5645 5645 5644
5702 5699 5697 5693 5691 5689 5685 5683 5680 5677 5674 5673 5672 5670 5669 5667 5667 5666 5665 5664 5665 5663 5662 5660 5659 5658 5656 5654 5653 5652 5651 5649 5647 5646 5644 5644 5643 5643 5643 5641 5640 5639
5699 5696 5693 5690 5688 5686 5684 5681 5678 5675 5674 5672 5670 5668 5666 5665 5664 5662 5662 5663 5662 5661 5659 5657 5655 5655 5654 5652 5650 5648 5647 5646 5643 5642 5640 5639 5639 5639 5639 5638 5636 5636
5696 5692 5689 5687 5685 5683 5681 5679 5676 5673 5672 5670 5668 5665 5664 5663 5662 5661 5660 5660 5659 5658 5656 5654 5652 5652 5651 5650 5647 5645 5646 5644 5641 5639 5637 5637 5636 5635 5635 5634 5633 5633
5692 5689 5687 5684 5682 5679 5678 5677 5674 5671 5669 5668 5666 5665 5663 5662 5660 5659 5657 5657 5656 5654 5653 5652 5649 5649 5648 5646 5644 5642 5642 5641 5639 5637 5635 5635 5634 5633 5632 5631 5630 5630
5690 5687 5684 5682 5679 5676 5675 5673 5671 5669 5667 5666 5664 5663 5662 5659 5657 5655 5654 5654 5653 5652 5650 5649 5647 5646 5645 5644 5642 5640 5639 5638 5636 5635 5634 5633 5632 5631 5629 5628 5627 5627
5688 5685 5682 5679 5676 5674 5672 5670 5668 5667 5665 5663 5661 5660 5659 5656 5654 5653 5652 5653 5652 5651 5649 5646 5645 5644 5642 5641 5640 5638 5636 5635 5634 5633 5633 5632 5630 5629 5628 5627 5626 5625
5686 5682 5679 5676 5674 5672 5669 5667 5666 5664 5663 5661 5659 5657 5655 5655 5653 5652 5653 5652 5650 5650 5648 5645 5644 5642 5639 5638 5638 5637 5635 5634 5634 5633 5633 5633 5632 5629 5627 5626 5625 5623
5684 5680 5677 5675 5673 5671 5667 5665 5664 5662 5660 5659 5656 5654 5654 5654 5652 5651 5651 5650 5648 5648 5646 5643 5642 5640 5638 5637 5636 5636 5634 5633 5632 5632 5632 5632 5632 5629 5626 5624 5623 5621
5683 5679 5676 5673 5671 5669 5665 5663 5662 5659 5658 5656 5653 5652 5652 5652 5651 5650 5650 5648 5646 5645 5643 5641 5640 5639 5638 5637 5636 5634 5633 5632 5630 5630 5630 5629 5629 5629 5626 5622 5620 5620
5681 5678 5675 5671 5668 5666 5662 5661 5659 5656 5655 5653 5651 5650 5650 5649 5649 5649 5648 5646 5643 5643 5641 5640 5641 5641 5638 5635 5633 5632 5631 5629 5628 5629 5628 5626 5626 5626 5624 5621 5619 5618
5679 5676 5673 5669 5665 5663 5660 5658 5656 5654 5652 5650 5648 5648 5647 5646 5645 5645 5645 5644 5642 5641 5641 5642 5643 5641 5636 5631 5630 5630 5628 5628 5628 5628 5627 5625 5624 5624 5622 5620 5618 5616
5676 5674 5670 5666 5663 5660 5658 5656 5654 5652 5650 5647 5646 5645 5644 5643 5642 5641 5642 5642 5641 5640 5640 5641 5641 5638 5633 5629 5628 5627 5627 5627 5627 5627 5628 5626 5624 5623 5621 5619 5617 5614
5674 5671 5667 5663 5661 5658 5656 5654 5652 5649 5647 5644 5644 5643 5642 5641 5640 5638 5638 5638 5638 5637 5638 5639 5639 5635 5631 5628 5627 5626 5626 5626 5626 5627 5627 5625 5624 5622 5620 5618 5614 5612
5671 5668 5664 5661 5659 5656 5654 5652 5649 5647 5645 5643 5642 5641 5640 5639 5638 5637 5636 5635 5635 5634 5634 5636 5636 5633 5629 5627 5626 5626 5624 5624 5625 5624 5624 5623 5621 5619 5617 5615 5612 5610
5668 5665 5662 5659 5657 5654 5652 5650 5647 5645 5643 5642 5641 5639 5637 5637 5636 5636 5634 5633 5634 5633 5633 5635 5634 5631 5628 5627 5626 5625 5623 5623 5624 5623 5623 5622 5620 5617 5615 5613 5610 5608
5666 5663 5660 5657 5655 5652 5650 5648 5645 5643 5642 5641 5640 5639 5638 5636 5635 5634 5634 5633 5633 5633 5633 5634 5633 5630 5627 5626 5626 5624 5623 5622 5623 5623 5622 5622 5619 5616 5613 5611 5608 5607
5664 5661 5659 5656 5653 5650 5647 5645 5643 5641 5640 5639 5638 5638 5639 5636 5634 5634 5633 5633 5633 5632 5631 5631 5631 5630 5628 5627 5625 5624 5622 5623 5623 5621 5620 5619 5618 5616 5613 5610 5608 5606
5664 5660 5658 5655 5652 5648 5645 5644 5641 5639 5638 5637 5635 5635 5637 5636 5634 5634 5633 5632 5632 5631 5630 5630 5631 5631 5628 5626 5625 5623 5622 5623 5622 5620 5620 5618 5618 5615 5612 5610 5608 5606
5662 5659 5656 5653 5650 5647 5644 5642 5640 5638 5636 5636 5634 5634 5635 5634 5634 5633 5632 5633 5632 5631 5630 5630 5630 5631 5628 5627 5625 5622 5622 5622 5620 5619 5619 5618 5616 5614 5612 5611 5608 5605
5661 5657 5655 5652 5649 5646 5643 5642 5639 5637 5636 5636 5634 5633 5634 5633 5633 5633 5632 5632 5632 5631 5631 5630 5630 5631 5629 5627 5625 5622 5621 5621 5620 5619 5618 5617 5616 5614 5612 5611 5609 5606
5659 5656 5653 5651 5647 5645 5643 5641 5638 5636 5635 5634 5633 5633 5634 5633 5633 5632 5631 5632 5632 5632 5632 5631 5631 5631 5630 5627 5625 5622 5620 5620 5619 5618 5618 5616 5615 5613 5612 5611 5610 5608